Starlink 31357

operational
NORAD ID: 59502 Int'l Des: 2024-071 Owner: SPXS Country: US Constellation: starlink
LEOCIRCULAR

Starlink 31357について

説明を読み込み中...

リアルタイム位置

3D地球を読み込み中...

次回通過

高度履歴

Altitude vs Time

uPlot chart will show altitude changes over time

軌道要素

1 59502U 24071U 25307.76889878 .00001100 00000-0 49478-4 0 9991
2 59502 42.9977 331.2220 0000957 279.9401 80.1343 15.27584091 88947
Epoch: Nov 3, 2025 • Age: 10 hours

現在のステータス

高度 483.0 km
速度 7.63 km/s
衛星直下点 23.59°N, 107.31°W
打ち上げ日 Apr 13, 2024
運用期間 1.5 years
タイプ internet

技術仕様

分類 Payload
質量 730.00 kg
乾燥質量 700.00 kg
総質量 730.00 kg
長さ 0.30 m
直径 4.10 m
スパン 29.00 m
形状 Box + pan
製造者 SPXS
バスタイプ Starlink V2M
フェーズステータス In Orbit
所有者/国 SPXS/US

大規模コンステレーション

Loading constellations...